Regional Weather Roundup
Issued by NWS Portland, ME

Current Version | Previous Version | Graphics & Text | Print | Product List | Glossary On
Versions: 1 2 3 4 5 6 7 8 9 10 11 12 13 14 15 16 17 18 19 20 21 22 23 24 25 26 27 28 29 30 31 32 33 34 35 36 37 38 39 40 41 42 43 44 45 46 47 48 49 50
000
ASUS41 KGYX 281805
RWRGYX
WEATHER ROUNDUP FOR MAINE AND NEW HAMPSHIRE
NATIONAL WEATHER SERVICE GRAY ME
200 PM EDT WED JUN 28 2017

MEZ002-005-006-010-012-015-018-020-021-024-026-027-029-281900-
MAINE

CITY           SKY/WX    TMP DP  RH WIND       PRES   REMARKS
PORTLAND       PTSUNNY   73  50  44 VRB7      29.98R
6HR MIN TEMP:  60; 6HR MAX TEMP:  73;

SANFORD        MOSUNNY   73  50  44 NW14G20   29.99S
WISCASSET      PTSUNNY   73  52  47 VRB6      29.96S
6HR MIN TEMP:  61; 6HR MAX TEMP:  73;

ROCKLAND       CLOUDY    69  56  62 S10       29.94S
FRYEBURG       PTSUNNY   73  49  42 NW9G20    29.98R
6HR MIN TEMP:  60; 6HR MAX TEMP:  73;

LEWISTONAUBURN MOSUNNY   71  50  47 W7        29.97R
AUGUSTA        MOSUNNY   70  48  45 VRB5      29.95S
6HR MIN TEMP:  58; 6HR MAX TEMP:  72;

WATERVILLE     LGT RAIN  65  53  65 W10G20    29.93R
BANGOR         MOSUNNY   69  52  54 SW7       29.92S
6HR MIN TEMP:  58; 6HR MAX TEMP:  69; 6HR PCP:  0.01;

GREENVILLE       N/A     60  54  80 CALM      29.91R
6HR MIN TEMP:  54; 6HR MAX TEMP:  65; 6HR PCP:  0.09;

MILLINOCKET    MOSUNNY   66  51  58 VRB7      29.91F
6HR MIN TEMP:  59; 6HR MAX TEMP:  66; 6HR PCP:  0.01;

HOULTON        CLOUDY    66  54  65 W5        29.85F
6HR MIN TEMP:  59; 6HR MAX TEMP:  69; 6HR PCP: TRACE;

PRESQUE ISLE   LGT RAIN  59  55  87 SW6       29.88S
6HR MIN TEMP:  57; 6HR MAX TEMP:  63; 6HR PCP:  0.03;

FRENCHVILLE    MOSUNNY   64  52  64 W12       29.84F
6HR MIN TEMP:  52; 6HR MAX TEMP:  65; 6HR PCP:  0.01;

CARIBOU        CLOUDY    65  56  72 SW7       29.85F
6HR MIN TEMP:  56; 6HR MAX TEMP:  65; 6HR PCP:  0.09;

$$

NHZ002-005-008-009-011-012-014-281900-
NEW HAMPSHIRE

CITY           SKY/WX    TMP DP  RH WIND       PRES   REMARKS
PORTSMOUTH     MOSUNNY   74  49  41 W10       29.99R
ROCHESTER      PTSUNNY   72  49  44 NW8       29.99R
6HR MIN TEMP:  59; 6HR MAX TEMP:  73;

NASHUA         PTSUNNY   75  48  38 W10G20    30.03R
MANCHESTER     PTSUNNY   75  44  33 W13G22    30.01R
6HR MIN TEMP:  60; 6HR MAX TEMP:  75;

CONCORD        PTSUNNY   74  49  41 W10       30.02R
6HR MIN TEMP:  57; 6HR MAX TEMP:  75;

LACONIA        PTSUNNY  N/A N/A N/A NW15G22   30.02R
PLYMOUTH       PTSUNNY   70  47  44 W8        30.01S
BERLIN         PTSUNNY   68  50  52 W8        29.99S
6HR MIN TEMP:  54; 6HR MAX TEMP:  68; 6HR PCP: TRACE;

WHITEFIELD     CLOUDY    67  48  50 NW15G21   30.00S
6HR MIN TEMP:  55; 6HR MAX TEMP:  69; 6HR PCP:  0.01;

JAFFREY        MOSUNNY   70  49  47 W9        30.06R
6HR MIN TEMP:  57; 6HR MAX TEMP:  71;

KEENE          PTSUNNY   71  47  42 NW6       30.05R
LEBANON        LGT RAIN  70  49  47 NW9       30.02S
6HR MIN TEMP:  55; 6HR MAX TEMP:  74; 6HR PCP: TRACE;

MT WASHINGTON  SHOWER    39  39 100 W37G44      N/A  VSB 0
6HR MIN TEMP:  35; 6HR MAX TEMP:  40; 6HR PCP:  0.04;

$$

VTZ005-007-008-281900-
VERMONT

CITY           SKY/WX    TMP DP  RH WIND       PRES   REMARKS
ST JOHNSBURY     N/A     67  50  54 MISG      29.99S
MONTPELIER     PTSUNNY   62  56  80 CALM      30.07R
BURLINGTON     CLOUDY    69  57  65 NW3       30.02R
$$

MAZ007-012-024-CTZ003-RIZ002-NYZ038-NYZ072-281900-
SOUTHERN NEW ENGLAND AND NY

CITY           SKY/WX    TMP DP  RH WIND       PRES   REMARKS
BOSTON         MOSUNNY   75  48  38 W15G22    30.02S
WORCESTER      MOSUNNY   70  44  39 W15       30.08R
NANTUCKET      SUNNY     69  58  67 SW21      30.07R
PROVIDENCE     MOSUNNY   75  48  38 NW14      30.06R
HARTFORD       PTSUNNY   76  48  37 NW14G22   30.08R
ALBANY         MOSUNNY   73  50  44 W12       30.09S
NEW YORK CITY  MOSUNNY   77  49  37 NW12G25   30.11S
$$

ANZ081-ANZ082-ANZ150-NHZ014-MEZ023>029-281900-
COASTAL MARINE OBSERVATIONS

STATION/POSITION TIME  TEMP    WIND        PRES    WAVE
                       AIR SEA DIR/SP/G            HT/PER
                 (UTC) (F)     (DEG/KT/KT) (MB)    (FT/S)
MATINICUS ROCK   1700   56     230/ 16/ 16 1014.4R
ISLE OF SHOALS   1700   67     280/ 12/ 13 1015.5R
JEFFREYS LEDGE   1706      57                N/A     2/ 3
CASHES LEDGE BUO 1650   63 61              1015.7    2/ 5
GEORGES BANK BUO 1650   56 55              1017.2    2/ 7
$$

.............KEY..............
   WCI - WIND CHILL
   TC  - TEMPERATURE IN CELSIUS
   VSB - VISIBILITY IN MILES
   HX  - HEAT INDEX
   FAIR- INDICATES FEW OR NO CLOUDS BELOW 12,000 FT, WITH NO
         SIGNIFICANT WEATHER AND/OR OBSTRUCTIONS TO VISIBILITY.






USA.gov is the U.S. government's official web portal to all federal, state and local government web resources and services.